ROMMA est une association bénévole à but non lucratif. Votre soutien est indispensable : ADHERER à ROMMA ou FAIRE un DON

Crêts du Salève - (74, Haute-Savoie)

Salève (1270 m)   Longitude: 6° 10' 28'' E   Latitude: 46° 7' 42'' N Station romma n°73
 

Détail journalier du     <<     >>

Température Precipitation Humidité Vent Dir Rafale Dir. rafale Ensol.
Heure (°C) (mm) (%) (km/h) (km/h) (min)
01:00 8.10.29916S34S0
02:00 8.209916S29S0
03:00 8.209912SSO24SSO0
04:00 8.709911SSO19SSO0
05:00 8.6010013SO19SO0
06:00 8.4010014SO19SO0
07:00 8.4010015SO21SO0
08:00 8.4010013SO21SO0
09:00 8.6010012SO16OSO30
10:00 8.7010012SO19OSO0
11:00 8.8010012SO19OSO0
12:00 9.709710SO16SO0
13:00 10.20965SO15OSO0
14:00 10.30982OSO13OSO0
15:00 9.80.2992OSO13OSO0
16:00 9.80994OSO13OSO0
17:00 9.409910OSO21O10
18:00 9.30982OSO8OSO0
19:00 9.20995OSO13OSO0
20:00 9.20992OSO6OSO0
21:00 9.10991OSO8OSO0
22:00 9.10991OSO6OSO0
23:00 8.401005OSO11OSO0
minuit 8.601003OSO13OSO0

Graphique du 29-10-2019

 

Serveur OMMA